Overview Statistics Trail Chart Weather Telemetry Raw packets
 

This is the latest recevied weather packets stored in our database for station/object SV9TNF-57. If no packets are shown the sender has not sent any weather packets the latest 10 day(s).

<< 19 20 21 22 23 24 25 >>
Time Temp. Humidity Pressure Rain* Wind** Luminosity Snow
1788531283 28.89° C 54% 994.3 hPa 0 mm 6.26 m/s, 124° - -
1788530983 28.89° C 54% 994.4 hPa 0 mm 8.49 m/s, 221° - -
1788530683 28.89° C 52% 994.4 hPa 0 mm 8.49 m/s, 240° - -
1788530383 28.89° C 51% 994.1 hPa 0 mm 7.15 m/s, 4° - -
1788530083 29.44° C 50% 994 hPa 0 mm 10.28 m/s, 13° - -
1788529783 29.44° C 48% 994.2 hPa 0 mm 6.71 m/s, 182° - -
1788529482 30° C 47% 994.2 hPa 0 mm 9.83 m/s, 13° - -
1788529182 30° C 46% 994 hPa 0 mm 4.92 m/s, 140° - -
1788528882 30° C 46% 994.1 hPa 0 mm 4.02 m/s, 306° - -
1788528582 30° C 46% 994 hPa 0 mm 12.52 m/s, 50° - -
1788528282 30° C 45% 994 hPa 0 mm 12.07 m/s, 323° - -
1788527982 30.56° C 44% 993.9 hPa 0 mm 19.22 m/s, 6° - -
1788527682 30° C 45% 993.9 hPa 0 mm 11.18 m/s, 7° - -
1788527382 30.56° C 42% 993.9 hPa 0 mm 7.15 m/s, 67° - -
1788527082 31.11° C 42% 993.9 hPa 0 mm 8.05 m/s, 8° - -
1788526782 30.56° C 41% 993.9 hPa 0 mm 13.86 m/s, 259° - -
1788526482 30.56° C 42% 993.9 hPa 0 mm 4.92 m/s, 276° - -
1788526181 30.56° C 43% 993.9 hPa 0 mm 12.07 m/s, 316° - -
1788525881 30.56° C 43% 993.8 hPa 0 mm 8.49 m/s, 307° - -
1788525582 30.56° C 42% 994.1 hPa 0 mm 7.15 m/s, 68° - -
1788525281 30.56° C 41% 993.9 hPa 0 mm 6.26 m/s, 89° - -
1788524998 30.56° C 42% 994.1 hPa 0 mm 4.02 m/s, 330° - -
1788524681 30.56° C 42% 994.6 hPa 0 mm 8.05 m/s, 282° - -
1788524381 30.56° C 41% 994.2 hPa 0 mm 12.07 m/s, 334° - -
1788524081 31.11° C 40% 994.2 hPa 0 mm 12.52 m/s, 218° - -

* Rain latest hour (hover to see other rain measurements)
** Current wind speed in m/s (hover to see current wind gust speed)